Flag for Poland Weather past 2 weeks in Gdynia, Poland

Now
50 °F

Rain showers. Partly cloudy.


Feels Like: 48 °F
Forecast: 48 / 55 °F
Wind: 5 mph from South

Location: Gdansk-Rebiechowo

Current Time: Oct 21, 2014 at 10:23:31 PM

Latest Report: Oct 21, 2014 at 10:00 PM


Visibility: 4 mi

Pressure: 29.56 "Hg

Humidity: 100%

Dew point: 50 °F

Location of GdyniaLocation

Historic Weather in Gdynia — Graph

°F

Gdynia temperature yesterday

Maximum temperature yesterday: 61 °F (at 12:00 AM)
Minimum temperature yesterday: 52 °F (at 9:00 PM)
Average temperature yesterday: 56 °F

Past Weeks' High & Low Weather Summary

 TemperatureHumidityPressure
High66 °F (Oct 9, 1:00 PM)100% (Oct 7, 2:00 AM)30.30 "Hg (Oct 7, 2:00 AM)
Low39 °F (Oct 7, 1:30 AM)49% (Oct 8, 2:30 PM)29.59 "Hg (Oct 21, 7:00 PM)
Average54 °F88%29.87 "Hg
* Reported Oct 6 9:00 PM — Oct 21 9:00 PM, Gdynia, Weather by CustomWeather, © 2014

Note: Actual official high and low records may vary slightly from our data, if they occured in-between our weather recording intervals... More about our weather records

Advertising

Gdynia weather history for previous 24 hours

 ConditionsComfort  
Time TempWeatherWind HumidityBarometerVisibility
9:00 PM
Oct 21
50 °FPassing clouds.3 mph94%29.59 "HgN/A
8:30 PM50 °FPassing clouds.3 mph94%29.59 "HgN/A
8:00 PM50 °FPassing clouds.3 mph94%29.59 "HgN/A
7:30 PM52 °FPassing clouds.5 mph88%29.59 "HgN/A
7:00 PM52 °FPassing clouds.5 mph88%29.59 "HgN/A
6:30 PM52 °FPartly sunny.5 mph88%29.62 "HgN/A
6:00 PM52 °FPartly sunny.5 mph88%29.62 "HgN/A
5:30 PM52 °FPartly sunny.5 mph88%29.62 "HgN/A
5:00 PM54 °FPartly sunny.5 mph82%29.62 "HgN/A
4:30 PM54 °FPartly sunny.3 mph82%29.62 "HgN/A
4:00 PM54 °FPartly sunny.5 mph82%29.65 "HgN/A
3:30 PM54 °FPartly sunny.6 mph82%29.65 "HgN/A
3:00 PM54 °FBroken clouds.6 mph82%29.65 "HgN/A
2:30 PM54 °FPartly sunny.5 mph88%29.65 "HgN/A
2:00 PM54 °FPartly sunny.6 mph82%29.68 "HgN/A
1:30 PM52 °FPartly sunny.7 mph88%29.68 "HgN/A
1:00 PM52 °FPartly sunny.7 mph94%29.68 "HgN/A
12:30 PM52 °FBroken clouds.3 mph94%29.68 "HgN/A
12:00 PM52 °FPartly sunny.2 mph94%29.71 "HgN/A
11:30 AM52 °FPartly sunny.3 mph94%29.71 "Hg4 mi
11:00 AM52 °FLight rain. Fog.5 mph94%29.71 "Hg1 mi
10:30 AM52 °FPartly sunny.5 mph94%29.71 "Hg5 mi
10:00 AM50 °FScattered clouds.3 mph94%29.71 "Hg4 mi
9:30 AM50 °FPartly sunny.5 mph94%29.71 "Hg5 mi
9:00 AM50 °FPassing clouds.5 mph94%29.71 "Hg4 mi
8:30 AM48 °FFog.3 mph94%29.71 "Hg4 mi
8:00 AM46 °FPassing clouds.3 mph100%29.71 "Hg5 mi
7:30 AM46 °FPassing clouds.5 mph100%29.68 "Hg5 mi
7:00 AM45 °FPassing clouds.3 mph100%29.68 "HgN/A
6:30 AM46 °FPassing clouds.3 mph93%29.68 "HgN/A
6:00 AM46 °FClear.6 mph100%29.68 "Hg10 mi
5:00 AM48 °FClear.6 mph94%29.71 "Hg10 mi
4:30 AM48 °FClear.5 mph94%29.71 "Hg10 mi
4:00 AM48 °FClear.6 mph94%29.71 "Hg10 mi
3:30 AM50 °FClear.9 mph88%29.71 "Hg10 mi
3:00 AM50 °FPassing clouds.9 mph88%29.71 "HgN/A
2:30 AM52 °FPassing clouds.10 mph82%29.68 "HgN/A
2:00 AM52 °FClear.12 mph88%29.68 "Hg10 mi
1:30 AM52 °FPassing clouds.10 mph88%29.71 "HgN/A
1:00 AM52 °FClear.9 mph88%29.68 "Hg10 mi
12:30 AM54 °FClear.12 mph82%29.68 "Hg10 mi
12:00 AM54 °FPassing clouds.13 mph82%29.68 "HgN/A
11:30 PM
Oct 20
54 °FPassing clouds.13 mph82%29.71 "HgN/A
11:00 PM54 °FSprinkles. Passing clouds.10 mph82%29.71 "HgN/A
10:30 PM54 °FPassing clouds.14 mph82%29.71 "HgN/A
10:00 PM54 °FPassing clouds.13 mph82%29.71 "HgN/A
Weather by CustomWeather, © 2014

See weather overviewHow to use our weather pages